Flag for Germany Weather past 2 weeks in Oelde, North Rhine-Westphalia, Germany

Now
50 °F

Passing clouds.


Feels Like: 49 °F
Forecast: 45 / 55 °F
Wind: 3 mph from West

Location: Paderborn / Lippstadt

Current Time: May 26, 2015 at 12:34:17 AM

Latest Report: May 25, 2015 at 11:50 PM


Visibility: N/A

Pressure: 29.98 "Hg

Humidity: 71%

Dew point: 41 °F

Location of OeldeLocation

Historic Weather in Oelde — Graph

°F

Oelde temperature yesterday

Maximum temperature yesterday: 55 °F (at 5:20 PM)
Minimum temperature yesterday: 46 °F (at 1:20 AM)
Average temperature yesterday: 50 °F

Past Weeks' High & Low Weather Summary

 TemperatureHumidityPressure
High77 °F (May 12, 12:20 PM)100% (May 16, 7:20 PM)30.33 "Hg (May 16, 7:20 PM)
Low37 °F (May 15, 3:50 AM)31% (May 11, 4:20 PM)29.62 "Hg (May 18, 9:20 PM)
Average53 °F64%30.06 "Hg
* Reported May 10 10:20 PM — May 25 10:20 PM, Oelde, Weather by CustomWeather, © 2015

Note: Actual official high and low records may vary slightly from our data, if they occured in-between our weather recording intervals... More about our weather records

Advertising

Oelde weather history for previous 24 hours

 ConditionsComfort  
Time TempWeatherWind HumidityBarometerVisibility
10:20 PM
Mon, May 25
50 °FSunny.2 mph71%29.98 "Hg10 mi
9:50 PM50 °FSunny.2 mph71%29.98 "Hg10 mi
9:20 PM50 °FSunny.2 mph71%29.95 "Hg10 mi
8:50 PM52 °FSunny.2 mph77%29.95 "Hg10 mi
8:20 PM54 °FPassing clouds.3 mph77%29.95 "HgN/A
7:50 PM54 °FScattered clouds.3 mph77%29.95 "HgN/A
7:20 PM54 °FPassing clouds.5 mph77%29.95 "HgN/A
6:50 PM54 °FPassing clouds.5 mph72%29.95 "HgN/A
6:20 PM55 °FPassing clouds.6 mph67%29.95 "HgN/A
5:50 PM55 °FPassing clouds.5 mph72%29.95 "HgN/A
5:20 PM55 °FPassing clouds.5 mph72%29.95 "HgN/A
4:50 PM52 °FPartly sunny.5 mph82%29.95 "HgN/A
4:20 PM52 °FPartly sunny.5 mph82%29.95 "HgN/A
3:50 PM50 °FScattered clouds.3 mph88%29.98 "HgN/A
3:20 PM48 °FScattered clouds.1 mph94%29.98 "HgN/A
3:00 PM48 °FDrizzle. Broken clouds.5 mph94%29.98 "Hg6 mi
2:20 PM48 °FFog.9 mph94%29.98 "Hg1 mi
1:50 PM50 °FFog.6 mph94%29.98 "Hg1 mi
1:20 PM50 °FFog.6 mph94%29.98 "Hg1 mi
12:50 PM50 °FFog.6 mph94%29.98 "Hg1 mi
12:20 PM50 °FFog.5 mph94%29.98 "Hg1 mi
11:50 AM50 °FFog.3 mph94%29.98 "Hg2 mi
11:20 AM50 °FPartly sunny.5 mph88%29.98 "Hg6 mi
10:50 AM50 °FPartly sunny.5 mph88%29.98 "Hg6 mi
10:20 AM50 °FLight rain. Partly sunny.5 mph88%29.98 "Hg5 mi
9:50 AM50 °FScattered clouds.6 mph88%29.98 "HgN/A
9:20 AM50 °FLight rain. Scattered clouds.7 mph88%29.98 "HgN/A
8:50 AM48 °FLight rain. Scattered clouds.7 mph87%29.98 "HgN/A
8:20 AM48 °FLight rain. Scattered clouds.5 mph87%29.98 "HgN/A
7:50 AM48 °FLight rain. Scattered clouds.5 mph87%29.98 "Hg6 mi
7:20 AM46 °FLight rain. Clear.3 mph87%29.98 "Hg5 mi
6:50 AM46 °FSunny.2 mph87%29.98 "Hg10 mi
6:20 AM48 °FSunny.6 mph76%29.98 "Hg10 mi
5:50 AM48 °FClear.5 mph82%29.98 "Hg10 mi
5:20 AM46 °FClear.2 mph82%29.98 "Hg10 mi
4:50 AM46 °FClear.5 mph82%29.98 "Hg10 mi
4:20 AM46 °FClear.2 mph82%29.98 "Hg10 mi
3:50 AM48 °FPassing clouds.6 mph82%30.01 "HgN/A
3:20 AM46 °FClear.2 mph87%30.01 "Hg10 mi
2:50 AM46 °FClear.2 mph87%30.01 "Hg10 mi
2:20 AM46 °FClear.1 mph87%30.01 "Hg10 mi
1:50 AM48 °FClear.2 mph87%30.01 "Hg10 mi
1:20 AM46 °FPassing clouds.3 mph87%30.01 "HgN/A
12:50 AM48 °FClear.2 mph82%30.01 "Hg10 mi
12:20 AM50 °FPassing clouds.3 mph82%30.01 "HgN/A
Weather by CustomWeather, © 2015

See weather overviewHow to use our weather pages